This demonstration page uses our WeatherBlox Daily Observations layout. Learn more.

Left ArrowRight Arrow

Hourly Observations for June 23, 2017

Temp ( °F °C ) Dew Point ( °F °C ) Humidity (%) Winds ( mph kmh ) Pressure ( in mb ) Visibility ( mi km ) Precip ( " mm )
12:15 am 00:15 Clear 66 19.1 55 13 68 68 N 16 26 29.83 1010 10 16.0934 0 0
12:35 am 00:35 Clear 66 18.8 55 12.5 67 67 N 16 26 29.83 1010 10 16.0934 0 0
12:55 am 00:55 Clear 65 18.6 54 12.2 67 67 NNE 14 22 29.83 1010 10 16.0934 0 0
1:15 am 01:15 Clear 65 18.2 54 12.1 68 68 N 16 26 29.85 1011 10 16.0934 0 0
1:35 am 01:35 Clear 64 17.8 54 12 69 69 N 16 26 29.85 1011 10 16.0934 0 0
1:55 am 01:55 Clear 64 17.5 53 11.7 69 69 N 13 20 29.85 1011 10 16.0934 0 0
2:15 am 02:15 Clear 63 17.2 52 11.1 68 68 N 12 19 29.85 1011 10 16.0934 0 0
2:35 am 02:35 Clear 64 17.6 51 10.7 64 64 N 9 15 29.85 1011 10 16.0934 0 0
2:55 am 02:55 Clear 64 17.7 51 10.5 63 63 N 8 13 29.88 1012 10 16.0934 0 0
3:15 am 03:15 Clear 64 17.7 50 10.2 62 62 NNE 7 11 29.85 1011 10 16.0934 0 0
3:35 am 03:35 Clear 64 17.6 50 10.2 62 62 N 7 11 29.88 1012 10 16.0934 0 0
3:55 am 03:55 Clear 64 17.5 50 10.1 62 62 NNE 7 11 29.88 1012 10 16.0934 0 0
4:15 am 04:15 Partly Cloudy 63 17.1 51 10.6 66 66 Calm 29.91 1013 10 16.0934 0 0
4:35 am 04:35 Partly Cloudy 62 16.6 51 10.7 68 68 N 6 9 29.91 1013 10 16.0934 0 0
4:55 am 04:55 Partly Cloudy 62 16.5 51 10.5 68 68 N 10 17 29.91 1013 10 16.0934 0 0
5:15 am 05:15 Mostly Cloudy 62 16.7 50 10.2 66 66 NW 7 11 29.94 1014 10 16.0934 0 0
5:35 am 05:35 Mostly Cloudy 62 16.7 50 10 65 65 NNW 7 11 29.94 1014 10 16.0934 0 0
5:55 am 05:55 Cloudy 63 17.4 48 9.1 58 58 NNW 12 19 29.97 1015 10 16.0934 0 0
6:15 am 06:15 Cloudy with Light Rain 61 16 50 10.2 69 69 N 6 9 29.94 1014 10 16.0934 0.02 0.508
6:35 am 06:35 Mostly Cloudy with Light Rain 60 15.3 52 11 76 76 NNW 7 11 30 1016 10 16.0934 0.03 0.762
6:55 am 06:55 Partly Cloudy 60 15.3 52 11.2 77 77 NNW 9 15 30 1016 10 16.0934 0.03 0.762
7:15 am 07:15 Sunny 60 15.5 51 10.8 74 74 NNW 16 26 30 1016 10 16.0934 0 0
7:35 am 07:35 Sunny 60 15.8 48 9.1 65 65 N 15 24 30 1016 10 16.0934 0 0
7:55 am 07:55 Sunny 60 15.8 46 8 60 60 N 12 19 30.03 1017 10 16.0934 0 0
8:15 am 08:15 Partly Cloudy 60 15.8 44 6.6 55 55 N 14 22 30.03 1017 10 16.0934 0 0
8:35 am 08:35 Partly Cloudy 61 15.9 42 5.7 51 51 N 15 24 30.06 1018 10 16.0934 0 0
8:55 am 08:55 Partly Cloudy 62 16.5 43 6.1 50 50 N 20 31 30.06 1018 10 16.0934 0 0
9:15 am 09:15 Sunny 62 16.4 42 5.8 50 50 N 21 33 30.09 1019 10 16.0934 0 0
9:35 am 09:35 Partly Cloudy 63 17 41 4.8 45 45 NNW 31 50 30.09 1019 10 16.0934 0 0
9:55 am 09:55 Partly Cloudy 62 16.6 41 5.2 47 47 N 25 41 30.09 1019 10 16.0934 0 0
10:15 am 10:15 Sunny 64 17.8 43 6 46 46 N 24 39 30.06 1018 10 16.0934 0 0
10:35 am 10:35 Partly Cloudy 63 17.1 43 6 48 48 N 22 35 30.09 1019 10 16.0934 0 0
10:55 am 10:55 Partly Cloudy 64 18 44 6.4 47 47 N 18 30 30.06 1018 10 16.0934 0 0
11:15 am 11:15 Mostly Cloudy 64 18 44 6.4 47 47 N 13 20 30.06 1018 10 16.0934 0 0
11:35 am 11:35 Mostly Cloudy 65 18.3 45 7.1 48 48 N 10 17 30.06 1018 10 16.0934 0 0
11:55 am 11:55 Mostly Cloudy 64 18 46 7.6 51 51 N 12 19 30.06 1018 10 16.0934 0 0
12:15 pm 12:15 Partly Cloudy 65 18.6 46 7.8 50 50 N 9 15 30.06 1018 10 16.0934 0 0
12:35 pm 12:35 Mostly Cloudy 66 18.9 46 7.6 48 48 NNW 8 13 30.06 1018 10 16.0934 0 0
12:55 pm 12:55 Mostly Cloudy 67 19.7 47 8.6 49 49 NNW 9 15 30.06 1018 10 16.0934 0 0
1:15 pm 13:15 Mostly Cloudy 68 20 47 8.5 48 48 N 8 13 30.06 1018 10 16.0934 0 0
1:35 pm 13:35 Mostly Cloudy 69 20.7 47 8.6 46 46 N 8 13 30.03 1017 10 16.0934 0 0
1:55 pm 13:55 Partly Cloudy 71 21.6 47 8.5 43 43 NNW 14 22 30 1016 10 16.0934 0 0
2:15 pm 14:15 Sunny 73 22.7 46 7.8 38 38 NNW 9 15 30 1016 10 16.0934 0 0
2:35 pm 14:35 Sunny 73 23 45 7.3 37 37 NNW 13 20 30 1016 10 16.0934 0 0
2:55 pm 14:55 Partly Cloudy 73 23 45 7.3 37 37 NNW 13 20 30 1016 10 16.0934 0 0
3:15 pm 15:15 Partly Cloudy 73 22.6 44 6.8 36 36 NNW 7 11 30 1016 10 16.0934 0 0
3:35 pm 15:35 Mostly Cloudy 74 23.5 44 6.8 34 34 N 13 20 30 1016 10 16.0934 0 0
3:55 pm 15:55 Partly Cloudy 74 23.4 45 7 35 35 NNW 13 20 30 1016 10 16.0934 0 0
4:15 pm 16:15 Sunny 75 23.9 44 6.8 33 33 NNW 9 15 30 1016 10 16.0934 0 0
4:35 pm 16:35 Partly Cloudy 75 23.8 42 5.8 31 31 NNW 12 19 30 1016 10 16.0934 0 0
4:55 pm 16:55 Sunny 75 23.8 42 5.5 31 31 NW 12 19 30 1016 10 16.0934 0 0
5:15 pm 17:15 Sunny 75 23.8 42 5.6 31 31 NW 12 19 30 1016 10 16.0934 0 0
5:35 pm 17:35 Partly Cloudy 75 23.8 42 5.6 31 31 NNW 12 19 30 1016 10 16.0934 0 0
5:55 pm 17:55 Partly Cloudy 75 23.8 42 5.5 31 31 NW 9 15 30 1016 10 16.0934 0 0
6:15 pm 18:15 Sunny 75 23.7 42 5.7 31 31 N 13 20 30 1016 10 16.0934 0 0
6:35 pm 18:35 Sunny 75 23.7 42 5.3 30 30 NNW 10 17 30 1016 10 16.0934 0 0
6:55 pm 18:55 Sunny 74 23.5 41 5 30 30 NNW 10 17 30 1016 10 16.0934 0 0
7:15 pm 19:15 Sunny 74 23.1 42 5.8 33 33 N 10 17 30 1016 10 16.0934 0 0
7:35 pm 19:35 Sunny 73 22.9 43 6 34 34 N 9 15 30 1016 10 16.0934 0 0
7:55 pm 19:55 Sunny 72 22.2 43 5.9 35 35 N 8 13 30 1016 10 16.0934 0 0
8:15 pm 20:15 Sunny 71 21.5 43 6.2 37 37 N 8 13 30 1016 10 16.0934 0 0
8:35 pm 20:35 Sunny 69 20.3 45 7.4 43 43 NNE 6 9 30.03 1017 10 16.0934 0 0
8:55 pm 20:55 Sunny 67 19.2 46 7.5 47 47 N 9 15 30.06 1018 10 16.0934 0 0
9:15 pm 21:15 Clear 64 18 46 7.5 50 50 NNE 8 13 30.06 1018 10 16.0934 0 0
9:35 pm 21:35 Clear 62 16.7 47 8.1 57 57 NNE 6 9 30.09 1019 10 16.0934 0 0
9:55 pm 21:55 Clear 61 16 47 8.2 60 60 NNE 5 7 30.09 1019 10 16.0934 0 0
10:15 pm 22:15 Clear 59 14.8 47 8.5 66 66 NE 7 11 30.09 1019 10 16.0934 0 0
10:35 pm 22:35 Hazy 58 14.7 47 8.5 67 67 NE 6 9 30.12 1020 5 8.0467 0 0
10:55 pm 22:55 Hazy 58 14.2 47 8.5 69 69 NE 5 7 30.12 1020 4 6.43736 0 0
11:15 pm 23:15 Hazy 58 14.3 47 8.5 68 68 NE 3 6 30.12 1020 5 8.0467 0 0
11:35 pm 23:35 Clear 58 14.3 47 8.5 68 68 Calm 30.12 1020 7 11.26538 0 0
11:55 pm 23:55 Clear 57 14.1 47 8.1 67 67 NE 3 6 30.12 1020 10 16.0934 0 0

Powered by AerisWeather